Weather History for New River MCAS, NC

Change the Weather History Date:

Tuesday, February 19, 2013

  Actual Average Record
Temperature  
Mean Temperature 46 °F -  
Max Temperature 63 °F 56 °F 80 °F (2000)
Min Temperature 30 °F 36 °F 21 °F (2007)
Degree Days  
Heating Degree Days 18    
Moisture  
Dew Point 42 °F    
Average Humidity 76    
Maximum Humidity 89    
Minimum Humidity 60    
Precipitation  
Precipitation 0.05 in - - ()
Sea Level Pressure  
Sea Level Pressure 30.09 in    
Wind  
Wind Speed 5 mph (SW)    
Max Wind Speed 17 mph    
Max Gust Speed 30 mph    
Visibility 10 miles    
Events Rain    
Averages and records for this station are not official NWS values.
T = Trace of Precipitation, MM = Missing Value Source: NWS Daily Summary

Daily Weather History Graph

Daily Weather History Graph

Search for Another Location

Airport:

Trip Planner

Search our weather history database for the weather conditions in past years. The results will help you decide how hot, cold, wet, or windy it might be!

Date:

Astronomy

Feb. 19, 2013 Rise Set
Actual Time 6:50 AM EST 5:56 PM EST
Civil Twilight 6:25 AM EST 6:22 PM EST
Nautical Twilight 5:55 AM EST 6:51 PM EST
Astronomical Twilight 5:26 AM EST 7:21 PM EST
Moon 12:34 PM EST 2:13 AM EST
Length of Visible Light 11h 57m
Length of Day
11h 06m
Waxing Gibbous, 67% of the Moon is Illuminated
Feb 19
Waxing Gibbous
Feb 25
Full
Mar 4
Last Quarter
Mar 11
New
Mar 19
First Quarter

Hourly Weather History & Observations

Time (EST) Temp. Windchill Dew Point Humidity Pressure Visibility Wind Dir Wind Speed Gust Speed Precip Events Conditions
12:56 AM 30.9 °F - 27.0 °F 85% 30.32 in 10.0 mi Calm Calm - N/A   Clear
1:56 AM 32.0 °F - 27.0 °F 82% 30.29 in 10.0 mi Calm Calm - N/A   Clear
2:56 AM 33.1 °F 30.0 °F 28.0 °F 82% 30.26 in 10.0 mi South 3.5 mph - N/A   Clear
3:56 AM 32.0 °F 28.7 °F 28.0 °F 85% 30.24 in 10.0 mi South 3.5 mph - N/A   Clear
4:56 AM 35.1 °F 32.2 °F 30.9 °F 85% 30.22 in 10.0 mi SSE 3.5 mph - N/A   Clear
5:56 AM 37.0 °F - 33.1 °F 86% 30.21 in 10.0 mi Calm Calm - N/A   Scattered Clouds
6:56 AM 34.0 °F - 30.9 °F 89% 30.19 in 7.0 mi Calm Calm - N/A   Clear
7:56 AM 43.0 °F - 39.9 °F 89% 30.19 in 10.0 mi Calm Calm - N/A   Mostly Cloudy
8:56 AM 51.1 °F - 45.0 °F 80% 30.18 in 10.0 mi Calm Calm - 0.00 in Rain Light Rain
9:56 AM 59.0 °F - 46.9 °F 64% 30.15 in 10.0 mi South 6.9 mph - 0.00 in   Mostly Cloudy
10:56 AM 62.1 °F - 48.0 °F 60% 30.13 in 10.0 mi South 5.8 mph 16.1 mph N/A   Scattered Clouds
11:56 AM 63.0 °F - 50.0 °F 63% 30.08 in 10.0 mi South 9.2 mph - 0.00 in   Overcast
12:56 PM 59.0 °F - 52.0 °F 78% 30.06 in 10.0 mi SSW 9.2 mph - 0.02 in   Overcast
1:56 PM 57.0 °F - 53.1 °F 87% 30.01 in 8.0 mi South 9.2 mph - 0.03 in Rain Light Rain
2:56 PM 57.9 °F - 50.0 °F 75% 29.96 in 10.0 mi SSW 11.5 mph - 0.00 in   Overcast
3:56 PM 59.0 °F - 50.0 °F 72% 29.95 in 10.0 mi SSW 9.2 mph - N/A   Overcast
4:56 PM 60.1 °F - 46.9 °F 62% 29.93 in 10.0 mi WSW 12.7 mph 20.7 mph N/A   Overcast
5:56 PM 59.0 °F - 46.9 °F 64% 29.94 in 10.0 mi SW 16.1 mph 29.9 mph N/A   Overcast
7:56 PM 57.9 °F - 50.0 °F 75% 29.94 in 10.0 mi WSW 16.1 mph 24.2 mph N/A   Overcast
8:26 PM 57.2 °F - 50.0 °F 77% 29.92 in 10.0 mi WSW 15.0 mph 23.0 mph N/A   Scattered Clouds
8:56 PM 55.9 °F - 48.9 °F 77% 29.95 in 10.0 mi West 11.5 mph - N/A   Partly Cloudy
9:56 PM 54.0 °F - 44.1 °F 69% 29.98 in 10.0 mi West 17.3 mph - N/A   Partly Cloudy
10:56 PM 52.0 °F - 41.0 °F 66% 29.98 in 10.0 mi West 12.7 mph - N/A   Mostly Cloudy
11:56 PM 48.9 °F - 41.0 °F 74% 29.98 in 10.0 mi West 9.2 mph - N/A   Clear